Regional Weather Roundup
Issued by NWS Cleveland, OH

Home | Current Version | Previous Version | Graphics & Text | Print | Product List | Glossary On
Versions: 1 2 3 4 5 6 7 8 9 10 11 12 13 14 15 16 17 18 19 20 21 22 23 24 25 26 27 28 29 30 31 32 33 34 35 36 37 38 39 40 41 42 43 44 45 46 47 48 49 50
264
ASUS41 KCLE 240510
RWRCLE
OHIO REGIONAL WEATHER ROUNDUP
NATIONAL WEATHER SERVICE WILMINGTON, OH
100 AM EDT TUE MAY 24 2016

NOTE: "FAIR" INDICATES FEW OR NO CLOUDS BELOW 12,000 FEET WITH NO
SIGNIFICANT WEATHER AND/OR OBSTRUCTIONS TO VISIBILITY.

OHZ001>008-015>018-024>027-034-035-043-044-240600-
   NORTHWEST OHIO

CITY           SKY/WX    TMP DP  RH WIND       PRES   REMARKS
DEFIANCE       FAIR      55  47  74 CALM      30.01S
FINDLAY        FAIR      58  46  64 SE3       30.01F
TOLEDO EXPRESS FAIR      52  48  86 CALM      30.01S
TOLEDO EXEC    FAIR      59  47  64 SE3       30.02F
LIMA           FAIR      57  47  69 S7        30.02F
$$

OHZ009>014-019>023-028>033-038-089-240600-
   NORTHEAST OHIO

CITY           SKY/WX    TMP DP  RH WIND       PRES   REMARKS
CLE-HOPKINS    FAIR      59  47  64 SW3       30.04F
CLE-LAKEFRONT  FAIR      62  48  60 SE9       30.01S
CUY CO. ARPT   NOT AVBL
LORAIN-ELYRIA  FAIR      54  47  77 CALM      30.03F
ASHTABULA      FAIR      49  46  90 CALM      30.03S
AKRON-CANTON   FAIR      56  46  69 CALM      30.04S
WOOSTER        FAIR      51  49  92 NW3       30.04S
MANSFIELD      FAIR      58  50  75 CALM      30.04F
YOUNGSTOWN     FAIR      52  47  83 CALM      30.03S
$$

OHZ042-051>053-060>062-070>072-077>081-240600-
  SOUTHWEST OHIO

CITY           SKY/WX    TMP DP  RH WIND       PRES   REMARKS
CINC-COVINGTON FAIR      53  51  93 S5        30.04F
CINC-LUNKEN    FAIR      54  53  97 CALM      30.05S
HAMILTON       FAIR      54  51  90 CALM      30.05S
DAYTON         FAIR      61  47  59 SW7       30.05S
WRIGHT-PAT AFB FAIR      58  51  77 CALM      30.03S
DAYTON GENERAL FAIR      60  45  57 CALM      30.04R
WILMINGTON     FAIR      56  52  86 CALM      30.05R
$$

OHZ036-037-039>041-045>050-054>059-063>069-073>076-082>088-240600-
  CENTRAL AND SOUTHEAST OHIO

CITY           SKY/WX    TMP DP  RH WIND       PRES   REMARKS
COLUMBUS       FAIR      57  51  80 CALM      30.03S
OSU AIRPORT    FAIR      57  49  74 CALM      30.03
BOLTON FIELD   FAIR      57  51  80 W5        30.04S
RICKENBACK AFB FAIR      58  51  79 CALM      30.03R
NEWARK         FAIR      54  51  90 CALM      30.03F
MARION         FAIR      58  49  72 CALM      30.04S
LANCASTER      FAIR      53  49  86 CALM      30.03F
ZANESVILLE     FAIR      56  52  86 CALM      30.03S
NEW PHILLY     FAIR      57  52  83 CALM      30.04S
$$




USA.gov is the U.S. government's official web portal to all federal, state and local government web resources and services.